Weather in Pegeia

Cyprus     34˚52′54″N   32˚22′48″E
temp.,
°C
wind,
m/s
gust,
m/s
humid.,
%
clouds,
%
prec.,
mm/h
press.,
hPa
HPBL,
m
17 january, sun
sun1723:00+12˚sw7118287 1.8 1007775
02:00+12˚wsw9148165 3.0 1006656
05:00+12˚wsw8128694 2.3 1005772
08:00+11˚w598697 4.9 1005716
11:00+12˚w91175100 1.8 10061085
14:00+10˚w81177100 3.4 10051087
17:00+10˚w10137197 0.9 10061143
20:00+8˚w11166851 0.9 1008935
18 january, mon
mon1823:00+8˚w1115743 0.1 1011888
02:00+8˚w9137047 0.6 10121101
05:00+7˚w9137369 0.3 1013630
08:00+7˚w7117649 0.4 1014869
11:00+10˚w8106433 0.3 10171504
14:00+9˚w797163 0.9 10151088
17:00+8˚wnw1285100 0.8 1016229
20:00+7˚nne3493100 3.4 1014271
19 january, tue
tue1923:00+9˚wsw1494100 5.9 1014239
02:00+8˚ne3394100 6.1 1013155
05:00+6˚nnw239350 0.2 101367
08:00+7˚nnw458467 0.6 1015472
11:00+10˚nnw446244 0.0 10161025
14:00+10˚wnw355733 0.1 10141252
17:00+8˚sse127680 0.4 1015279
20:00+7˚w487075 1.1 1015354
20 january, wed
wed2023:00+7˚nw487499 1.3 1015669
02:00+7˚nw7106690 1.5 1015517
05:00+5˚nnw477551 0.4 1015215
08:00+6˚nw5106232 0.4 1018480
11:00+8˚nnw78576 0.0 10201117
14:00+8˚nnw78523 0.0 10211058
17:00+6˚nnw34560 0.0 1023144
20:00+4˚ne23560 0.0 1025109
21 january, thu
thu2123:00+4˚e12540 0.0 102668
02:00+4˚ese11540 0.0 102665
05:00+3˚se11580 0.0 102770
08:00+7˚sse11620 0.0 102937
11:00+11˚wnw224251 0.0 1029873
14:00+12˚wnw324268 0.0 1028925
17:00+8˚nw126016 0.0 102865
20:00+6˚ene116825 0.0 102934